Home > Weather > Opole > Past weeks

Flag for Poland Past Weather in Opole, Poland — Yesterday and Last 2 Weeks

Now
68 °F

Sunny.


Feels Like: 68 °F
Forecast: 54 / 75 °F
Wind: 7 mph from Northwest

Location: Wroclaw Ii

Current Time: Jun 27, 2016 at 1:20:09 PM

Latest Report: Jun 27, 2016 at 1:00 PM


Visibility: 10 mi

Pressure: 30.07 "Hg

Humidity: 69%

Dew Point: 57 °F

Location of OpoleLocation

Past Weather in Opole — Graph

°F

Opole Temperature Yesterday

Maximum temperature yesterday: 72 °F (at 7:00 PM)
Minimum temperature yesterday: 59 °F (at 11:30 PM)
Average temperature yesterday: 66 °F

High & Low Weather Summary for the Past Weeks

 TemperatureHumidityPressure
High93 °F (Jun 25, 3:00 PM)100% (Jun 14, 12:00 AM)30.30 "Hg (Jun 14, 12:00 AM)
Low50 °F (Jun 15, 5:00 AM)31% (Jun 12, 1:30 PM)29.42 "Hg (Jun 17, 7:00 AM)
Average67 °F74%29.91 "Hg
* Reported Jun 12 12:00 PM — Jun 27 12:00 PM, Opole, Weather by CustomWeather, © 2016

Note: Actual official high and low records may vary slightly from our data, if they occured in-between our weather recording intervals... More about our weather records

Advertising

Opole Weather History for the Previous 24 Hours

Scroll right to see more
 ConditionsComfort  
Time TempWeatherWind HumidityBarometerVisibility
12:00 PM
Mon, Jun 27
66 °FSunny.6 mph73%30.09 "Hg10 mi
11:30 AM66 °FPassing clouds.7 mph73%30.09 "HgN/A
11:00 AM64 °FSunny.5 mph78%30.09 "Hg10 mi
10:30 AM64 °FSunny.2 mph78%30.09 "Hg10 mi
10:00 AM63 °FPassing clouds.3 mph77%30.07 "HgN/A
9:30 AM63 °FSunny.3 mph77%30.07 "Hg10 mi
9:00 AM63 °FLight rain. Clear.5 mph77%30.07 "HgN/A
8:30 AM63 °FSunny.7 mph83%30.07 "Hg10 mi
8:00 AM61 °FSunny.8 mph88%30.07 "Hg10 mi
7:30 AM61 °FSunny.3 mph88%30.07 "Hg10 mi
7:00 AM61 °FSunny.2 mph88%30.07 "Hg10 mi
6:30 AM61 °FSunny.2 mph83%30.07 "Hg10 mi
6:00 AM59 °FSunny.1 mph94%30.07 "Hg10 mi
5:30 AM57 °FFog.2 mph100%30.07 "HgN/A
5:00 AM55 °FFog.2 mph94%30.07 "HgN/A
4:30 AM57 °FFog.1 mph94%30.07 "HgN/A
4:00 AM57 °FClear.1 mph94%30.04 "Hg10 mi
3:30 AM57 °FClear.No wind94%30.04 "Hg10 mi
3:00 AM55 °FFog.2 mph94%30.04 "HgN/A
2:30 AM57 °FCool.2 mph94%30.04 "HgN/A
2:00 AM57 °FCool.1 mph88%30.07 "HgN/A
1:30 AM57 °FCool.1 mph94%30.04 "HgN/A
1:00 AM59 °FClear.1 mph88%30.04 "Hg10 mi
12:30 AM57 °FClear.3 mph88%30.04 "Hg10 mi
12:00 AM59 °FClear.2 mph94%30.04 "Hg10 mi
11:30 PM
Sun, Jun 26
59 °FClear.3 mph88%30.04 "Hg10 mi
11:00 PM63 °FClear.3 mph83%30.04 "Hg10 mi
10:30 PM63 °FClear.5 mph83%30.07 "Hg10 mi
10:00 PM64 °FSunny.1 mph78%30.04 "Hg10 mi
9:30 PM66 °FSunny.1 mph73%30.04 "Hg10 mi
9:00 PM68 °FSunny.1 mph69%30.04 "Hg10 mi
8:30 PM68 °FPassing clouds.2 mph69%30.04 "HgN/A
8:00 PM66 °FPassing clouds.5 mph68%30.04 "HgN/A
7:30 PM70 °FPassing clouds.7 mph60%30.04 "HgN/A
7:00 PM72 °FPassing clouds.9 mph61%30.04 "HgN/A
6:30 PM70 °FPassing clouds.8 mph64%30.01 "HgN/A
6:00 PM70 °FPassing clouds.7 mph64%30.01 "HgN/A
5:30 PM70 °FPassing clouds.10 mph64%30.01 "HgN/A
5:00 PM68 °FPassing clouds.8 mph73%30.04 "HgN/A
4:30 PM68 °FPassing clouds.12 mph69%30.04 "HgN/A
4:00 PM66 °FPassing clouds.9 mph78%30.04 "HgN/A
3:30 PM66 °FPassing clouds.12 mph78%30.04 "HgN/A
3:00 PM64 °FScattered clouds.17 mph83%30.04 "HgN/A
2:30 PM64 °FScattered clouds.15 mph88%30.01 "HgN/A
2:00 PM63 °FLight rain. Scattered clouds.10 mph88%30.04 "HgN/A
1:30 PM63 °FLight rain. Partly sunny.7 mph88%30.07 "HgN/A
1:00 PM61 °FLight rain. Partly sunny.10 mph94%30.04 "HgN/A
Weather by CustomWeather, © 2016

See weather overviewHow to use our weather pages